Portada
METAR-TAF:

METAR-TAF

Aeroports :

Sallisaw, Oklahoma, Estats Units d'Amèrica

latitud: 35-26-17N, longitud: 094-48-10W, altitud: 161 m

Observació

L'informe es va fer fa 27 minuts, a les 04:35 UTC
Vent 4 kt del Est/Sud-Est
Temperatura 25°C
Humitat 83%
Pressió 1022 hPa
Visibilitat: 16.1 km
Cel clar

METAR: KJSV 200435Z AUTO 11004KT 10SM CLR 25/22 A3017 RMK AO2

Hora: 00:02 (05:02 UTC)


TAF: manca

Observacions i pronòstics meteorològics de més de 4000 aeroports (METAR i TAF).

Les estacions disponibles són els punts grocs i vermells al mapa.

Posi el ratolí al punt desitjat per veure el nom de l'estació.

Feu clic per veure les observacions i els pronòstics meteorològics.

Per canviar el mapa: feu clic els botons verds amb una creu de color negre per apropar; al botó verd amb un guió per allunyar la imatge; o en les fletxes verdes per a mapes adjacents.


METAR-TAF: